Home   Weather   Bühl   Past weeks

Flag for Germany Past Weather in Bühl, Baden-Württemberg, Germany — Yesterday and Last 2 Weeks

Now
72 °F

Passing clouds.


Feels Like: 77 °F
Forecast: 58 / 65 °F
Wind: 8 mph from West

Location: Karlsruhe - Baden Wurttemberg

Current Time: Jul 23, 2017 at 7:10:24 pm

Latest Report: Jul 23, 2017 at 6:20 pm


Visibility: N/A

Pressure: 30.01 "Hg

Humidity: 47%

Dew Point: 50 °F

Location of BühlLocation

Past Weather in Bühl — Graph

°F

Bühl Temperature Yesterday

Maximum temperature yesterday: 84 °F (at 5:20 pm)
Minimum temperature yesterday: 63 °F (at 3:20 am)
Average temperature yesterday: 76 °F

High & Low Weather Summary for the Past Weeks

 TemperatureHumidityPressure
High93 °F (Jul 19, 5:20 pm)100% (Jul 17, 5:20 am)30.27 "Hg (Jul 17, 5:20 am)
Low52 °F (Jul 13, 5:20 am)28% (Jul 19, 2:50 pm)29.80 "Hg (Jul 10, 4:20 am)
Average72 °F65%29.99 "Hg
* Reported Jul 8 5:20 pm — Jul 23 5:20 pm, Bühl. Weather by CustomWeather, © 2017

Note: Actual official high and low records may vary slightly from our data, if they occured in-between our weather recording intervals... More about our weather records

Advertising

Bühl Weather History for the Previous 24 Hours

Scroll right to see more
 ConditionsComfort  
Time TempWeatherWind HumidityBarometerVisibility
5:20 pm
Sun, Jul 23
73 °FPassing clouds.8 mph44%30.01 "HgN/A
4:50 pm73 °FPassing clouds.10 mph44%30.04 "HgN/A
4:20 pm73 °FPassing clouds.8 mph44%30.04 "HgN/A
3:50 pm72 °FPassing clouds.9 mph47%30.04 "HgN/A
3:20 pm73 °FPassing clouds.12 mph41%30.04 "HgN/A
2:50 pm73 °FPassing clouds.13 mph41%30.04 "HgN/A
2:20 pm72 °FPassing clouds.8 mph44%30.04 "HgN/A
1:50 pm70 °FPassing clouds.7 mph50%30.04 "HgN/A
1:20 pm72 °FScattered clouds.13 mph44%30.04 "HgN/A
12:50 pm72 °FScattered clouds.14 mph44%30.04 "HgN/A
12:20 pm70 °FScattered clouds.12 mph50%30.04 "HgN/A
11:50 am70 °FScattered clouds.10 mph53%30.04 "HgN/A
11:20 am70 °FScattered clouds.10 mph53%30.07 "HgN/A
10:50 am68 °FScattered clouds.10 mph56%30.07 "HgN/A
10:20 am66 °FPassing clouds.10 mph56%30.07 "HgN/A
9:20 am66 °FPassing clouds.12 mph64%30.04 "HgN/A
8:20 am66 °FPassing clouds.10 mph68%30.04 "HgN/A
7:20 am64 °FScattered clouds.7 mph78%30.04 "HgN/A
6:50 am64 °FBroken clouds.7 mph83%30.01 "HgN/A
6:20 am64 °FBroken clouds.5 mph88%30.01 "HgN/A
5:50 am64 °FBroken clouds.5 mph88%30.01 "HgN/A
5:20 am64 °FPartly cloudy.2 mph88%29.98 "HgN/A
4:50 am64 °FPartly cloudy.3 mph88%29.98 "HgN/A
2:20 am68 °FPassing clouds.5 mph73%29.98 "HgN/A
1:20 am70 °FPassing clouds.9 mph73%29.95 "HgN/A
12:50 am70 °FClear.7 mph73%29.95 "Hg10 mi
11:50 pm
Sat, Jul 22
72 °FClear.12 mph65%29.92 "Hg10 mi
11:20 pm73 °FClear.13 mph57%29.92 "Hg10 mi
10:50 pm73 °FClear.9 mph57%29.89 "Hg10 mi
10:20 pm72 °FPassing clouds.7 mph61%29.89 "HgN/A
9:50 pm75 °FClear.8 mph54%29.89 "Hg10 mi
9:20 pm77 °FClear.9 mph51%29.86 "Hg10 mi
8:50 pm79 °FSunny.8 mph51%29.89 "Hg10 mi
8:20 pm81 °FSunny.10 mph51%29.89 "Hg10 mi
7:50 pm82 °FSunny.10 mph45%29.89 "Hg10 mi
7:20 pm82 °FSunny.10 mph45%29.89 "Hg10 mi
Weather by CustomWeather, © 2017

See weather overviewHow to use our weather pages